Location: Irma
(52.9170°N, 111.2330°W)
Time: 04:19:22
(UTC-06:00)

Amateur Radio Satellites - All Passes

Search period start: 28 May 2017 03:49
Search period end: 29 May 2017 03:49
Location: Irma, 52.9170°N, 111.2330°W

Satellite Date Start Highest point End Downlink Frequencies (MHz)
Time Altitude Azimuth
PCSat 28 May 03:50:18 03:55:46 72° 48° (NE) 04:01:11 145.827
YUBILEINY 28 May 03:51:50 03:59:45 37° 299° (WNW) 04:07:47 435.215
O/OREOS (USA 219) 28 May 03:53:05 03:56:36 22° 103° (ESE) 04:00:07 437.305
KKS-1 28 May 03:57:43 04:01:20 25° 60° (ENE) 04:04:58 437.445
CUBESAT XI-V 28 May 04:06:00 04:10:13 33° 64° (ENE) 04:14:26 437.345
SO-50 28 May 04:18:16 04:21:46 21° 14° (NNE) 04:25:16 436.795
STARS 28 May 04:24:18 04:27:38 22° 59° (ENE) 04:30:59 437.465
ITAMSAT 1 28 May 04:45:03 04:50:10 52° 100° (E) 04:55:16 435.822/435.867
AO-85 28 May 04:52:05 04:55:24 24° 119° (ESE) 04:58:38 145.980
MOZHAYETS 4 28 May 04:53:19 04:57:13 27° 267° (W) 05:01:09
ITUPSAT 1 28 May 04:54:38 04:57:48 17° 272° (W) 05:00:59 437.325
AO-7 28 May 04:55:10 05:03:21 55° 102° (ESE) 05:11:31 .
BEESAT 3 28 May 05:00:26 05:01:44 11° 111° (ESE) 05:03:03 437.485
Gurwin Techsat 1B 28 May 05:10:57 05:15:12 25° 304° (NW) 05:19:26 435.225
Oscar 19 28 May 05:20:49 05:23:40 15° 311° (NW) 05:26:30 437.125/150
O/OREOS (USA 219) 28 May 05:31:05 05:35:38 61° 303° (WNW) 05:40:12 437.305
KKS-1 28 May 05:33:22 05:37:40 50° 260° (W) 05:42:00 437.445
PCSat 28 May 05:34:17 05:38:43 26° 249° (WSW) 05:43:08 145.827
CUBESAT XI-V 28 May 05:43:05 05:47:31 40° 263° (W) 05:51:59 437.345
RS-15 28 May 05:52:32 06:04:40 57° 336° (NNW) 06:16:47 29.354- 29.394
YUBILEINY 28 May 05:56:43 06:00:03 12° 329° (NNW) 06:03:24 435.215
SO-50 28 May 05:58:48 06:03:12 49° 37° (NE) 06:07:35 436.795
STARS 28 May 05:59:20 06:03:38 59° 258° (WSW) 06:07:58 437.465
STRAND 1 28 May 06:10:38 06:14:15 20° 53° (NE) 06:17:52 437.568
DOVE 4 28 May 06:13:52 06:16:39 17° 90° (E) 06:19:28 437.250
BEESAT 2 28 May 06:19:19 06:22:36 24° 118° (ESE) 06:25:55 435.950
ITAMSAT 1 28 May 06:24:54 06:29:27 31° 300° (WNW) 06:33:59 435.822/435.867
AO-85 28 May 06:31:33 06:35:31 57° 319° (NW) 06:39:25 145.980
BEESAT 3 28 May 06:34:37 06:38:35 72° 130° (SE) 06:42:37 437.485
AO-7 28 May 06:48:11 06:56:07 50° 305° (NW) 07:04:03 .
LilacSat-2 28 May 06:51:08 06:54:15 22° 92° (E) 06:57:21 437.200
CUTE-I 28 May 06:52:59 06:57:17 24° 91° (E) 07:01:33 437.470
O/OREOS (USA 219) 28 May 07:13:11 07:16:00 16° 326° (NW) 07:18:48 437.305
XW-2D 28 May 07:22:53 07:26:37 44° 98° (E) 07:30:19 145.860 - 145.880
CUTE 1.7 + AOD 2 28 May 07:28:34 07:29:15 10° 84° (E) 07:29:57 437.475
XW-2B 28 May 07:30:52 07:34:40 52° 100° (E) 07:38:25 145.730 - 145.750
M-CUBED/EXP-1 PRIME 28 May 07:34:55 07:38:17 27° 58° (ENE) 07:41:29 437.505
NUDT-PHONESAT 28 May 07:35:36 07:39:17 46° 99° (E) 07:42:55 437.300
SO-50 28 May 07:39:27 07:43:35 36° 238° (WSW) 07:47:43 436.795
XW-2F 28 May 07:42:07 07:45:58 67° 101° (E) 07:49:48 145.980 - 146.000
XW-2C 28 May 07:44:35 07:48:28 74° 103° (ESE) 07:52:19 145.795 - 145.815
KAITUO 1B 28 May 07:46:38 07:50:27 62° 101° (ESE) 07:54:13 145.475/437.950
STRAND 1 28 May 07:47:42 07:52:49 87° 253° (WSW) 07:57:59 437.568
DOVE 4 28 May 07:50:40 07:54:48 62° 288° (WNW) 07:58:59 437.250
BEESAT 2 28 May 07:56:07 08:00:05 58° 319° (NW) 08:04:06 435.950
FO-29 28 May 07:57:34 07:57:56 10° 39° (NE) 07:58:19 435.910
RS-15 28 May 08:08:03 08:20:01 49° 9° (N) 08:31:41 29.354- 29.394
SEEDS 28 May 08:12:25 08:15:24 18° 89° (E) 08:18:22 437.485
BEESAT 3 28 May 08:13:03 08:16:32 28° 331° (NNW) 08:20:04 437.485
AO-85 28 May 08:13:46 08:16:40 19° 342° (NNW) 08:19:34 145.980
CUBEBUG 2 28 May 08:23:03 08:26:29 20° 90° (E) 08:29:57 437.445
LilacSat-2 28 May 08:25:01 08:28:42 42° 291° (WNW) 08:32:22 437.200
HO-68 28 May 08:25:30 08:32:17 41° 97° (E) 08:39:00 435.675
UWE-3 28 May 08:29:57 08:32:44 16° 87° (E) 08:35:32 435.000/436.395/437.385
CUTE-I 28 May 08:32:29 08:37:47 66° 291° (WNW) 08:43:05 437.470
AO-7 28 May 08:41:40 08:47:06 20° 329° (NNW) 08:52:33 .
Oscar 11 28 May 08:56:04 08:57:30 11° 84° (E) 08:58:57 .
XW-2D 28 May 08:57:33 09:00:36 22° 298° (WNW) 09:03:37 145.860 - 145.880
CUTE 1.7 + AOD 2 28 May 09:01:34 09:05:53 75° 102° (ESE) 09:10:08 437.475
XW-2B 28 May 09:05:43 09:08:33 20° 299° (WNW) 09:11:22 145.730 - 145.750
AAUSAT CUBESAT 2 28 May 09:06:03 09:09:43 29° 94° (E) 09:13:21 437.432
NO-84 28 May 09:08:25 09:12:06 27° 139° (SE) 09:15:42 435.350 FM
M-CUBED/EXP-1 PRIME 28 May 09:08:48 09:12:39 40° 254° (WSW) 09:16:16 437.505
XW-2A 28 May 09:10:00 09:13:28 86° 101° (ESE) 09:16:56 145.665 - 145.685
NUDT-PHONESAT 28 May 09:10:03 09:12:56 21° 298° (WNW) 09:15:48 437.300
TIGRISAT 28 May 09:12:03 09:15:17 21° 58° (ENE) 09:18:35 435.000
PRISM 28 May 09:16:39 09:20:10 28° 63° (ENE) 09:23:42 437.425
XW-2F 28 May 09:17:14 09:19:41 16° 301° (WNW) 09:22:08 145.980 - 146.000
XW-2C 28 May 09:19:54 09:22:11 15° 302° (WNW) 09:24:28 145.795 - 145.815
KAITUO 1B 28 May 09:21:33 09:24:04 17° 301° (WNW) 09:26:33 145.475/437.950
AO-73 28 May 09:23:13 09:27:01 26° 92° (E) 09:30:50 145.935
STRAND 1 28 May 09:29:46 09:32:47 16° 274° (W) 09:35:49 437.568
DOVE 4 28 May 09:31:03 09:31:43 10° 308° (NW) 09:32:23 437.250
BEESAT 2 28 May 09:35:35 09:38:37 20° 341° (NNW) 09:41:41 435.950
FO-29 28 May 09:36:41 09:41:32 41° 62° (ENE) 09:46:43 435.910
ZACube-1 28 May 09:38:06 09:42:22 37° 96° (E) 09:46:37 437.345
UNISAT 6 28 May 09:43:20 09:47:22 39° 66° (ENE) 09:51:28 437.425
SEEDS 28 May 09:47:18 09:51:30 60° 288° (WNW) 09:55:38 437.485
BEESAT 3 28 May 09:52:51 09:55:20 16° 355° (N) 09:57:49 437.485
AO-85 28 May 09:56:02 09:58:27 15° 7° (N) 10:00:54 145.980
CUBEBUG 2 28 May 09:58:57 10:03:29 63° 288° (WNW) 10:08:06 437.445
YUBILEINY 28 May 09:59:53 10:05:01 16° 40° (NE) 10:10:10 435.215
UWE-3 28 May 10:05:10 10:09:45 83° 286° (WNW) 10:14:25 435.000/436.395/437.385
HO-68 28 May 10:13:16 10:20:15 56° 298° (WNW) 10:27:13 435.675
CUTE-I 28 May 10:13:55 10:16:57 15° 312° (NW) 10:19:57 437.470
EO-88 28 May 10:18:13 10:20:16 14° 89° (E) 10:22:17 145.990 - 145.960
RS-15 28 May 10:22:08 10:34:35 76° 40° (NE) 10:46:29 29.354- 29.394
Oscar 11 28 May 10:30:00 10:34:24 80° 102° (ESE) 10:38:45 .
AO-7 28 May 10:34:09 10:36:44 12° 356° (N) 10:39:20 .
NANOSAT C BR1 28 May 10:34:42 10:36:35 13° 53° (NE) 10:38:28 145.865
CUTE 1.7 + AOD 2 28 May 10:38:23 10:41:13 17° 303° (WNW) 10:44:03 437.475
POLYITAN 1 28 May 10:40:25 10:42:53 15° 55° (NE) 10:45:22 437.675
AAUSAT CUBESAT 2 28 May 10:41:26 10:45:14 35° 294° (WNW) 10:49:00 437.432
DELFI C3 28 May 10:42:31 10:46:08 33° 96° (E) 10:49:43 145.870
DUCHIFAT 1 28 May 10:43:59 10:46:09 14° 54° (NE) 10:48:19 145.980
XW-2A 28 May 10:44:31 10:45:41 11° 303° (WNW) 10:46:50 145.665 - 145.685
NO-84 28 May 10:45:03 10:49:24 82° 156° (SSE) 10:53:32 435.350 FM
TIGRISAT 28 May 10:47:20 10:51:35 61° 258° (WSW) 10:55:59 435.000
QB50P2 28 May 10:48:37 10:51:34 19° 58° (ENE) 10:54:32 145.880/145.840
PRISM 28 May 10:51:28 10:55:21 39° 262° (W) 10:59:14 437.425
AO-73 28 May 10:59:05 11:03:28 49° 291° (WNW) 11:07:53 145.935
ZACube-1 28 May 11:14:30 11:18:36 34° 295° (WNW) 11:22:44 437.345
BEESAT 2 28 May 11:15:15 11:17:46 16° 5° (N) 11:20:17 435.950
UNISAT 6 28 May 11:20:23 11:24:11 29° 266° (W) 11:28:04 437.425
FO-29 28 May 11:22:01 11:26:47 36° 265° (W) 11:31:51 435.910
EO-79 28 May 11:23:59 11:27:46 33° 65° (ENE) 11:31:34 145.935-145.965
AIST 2D 28 May 11:24:03 11:27:30 51° 71° (ENE) 11:30:59 435.315
SEEDS 28 May 11:25:26 11:26:20 11° 309° (NW) 11:27:13 437.485
BEESAT 3 28 May 11:31:18 11:34:18 19° 19° (NNE) 11:37:17 437.485
AO-85 28 May 11:36:28 11:40:00 30° 31° (NNE) 11:43:37 145.980
CUBEBUG 2 28 May 11:37:26 11:39:18 12° 308° (NW) 11:41:09 437.445
UWE-3 28 May 11:42:54 11:45:34 15° 305° (NW) 11:48:15 435.000/436.395/437.385
Oscar 19 28 May 11:48:02 11:50:32 14° 48° (NE) 11:53:03 437.125/150
EO-88 28 May 11:50:40 11:54:20 63° 289° (WNW) 11:58:00 145.990 - 145.960
YUBILEINY 28 May 11:56:00 12:04:34 50° 68° (ENE) 12:13:05 435.215
HO-68 28 May 12:02:02 12:06:35 18° 321° (NW) 12:11:08 435.675
Oscar 11 28 May 12:07:10 12:10:01 17° 303° (WNW) 12:12:51 .
NANOSAT C BR1 28 May 12:07:25 12:11:36 76° 73° (ENE) 12:15:49 145.865
POLYITAN 1 28 May 12:13:54 12:18:05 87° 250° (WSW) 12:22:22 437.675
O/OREOS (USA 219) 28 May 12:16:54 12:20:36 24° 43° (NE) 12:24:17 437.305
DUCHIFAT 1 28 May 12:17:00 12:21:11 84° 71° (ENE) 12:25:24 145.980
DELFI C3 28 May 12:17:26 12:20:52 29° 296° (WNW) 12:24:16 145.870
AO-7 28 May 12:21:37 12:26:13 16° 24° (NNE) 12:30:48 .
QB50P2 28 May 12:22:45 12:26:56 67° 257° (WSW) 12:31:10 145.880/145.840
NO-84 28 May 12:22:58 12:27:11 64° 358° (N) 12:31:07 435.350 FM
LO-87 28 May 12:27:08 12:30:38 52° 100° (E) 12:34:07 145.935 - 145.965
BUGSAT 1 28 May 12:27:23 12:31:07 38° 67° (ENE) 12:34:53 437.445
RS-15 28 May 12:35:11 12:46:30 47° 248° (WSW) 12:57:21 29.354- 29.394
ESTCUBE 1 28 May 12:39:29 12:43:48 42° 98° (E) 12:48:05 437.505/2401.250
BEESAT 2 28 May 12:53:12 12:56:44 27° 28° (NNE) 13:00:17 435.950
AIST 2D 28 May 12:58:47 13:01:01 16° 270° (W) 13:03:17 435.315
EO-79 28 May 12:59:44 13:03:32 33° 264° (W) 13:07:22 145.935-145.965
SPROUT 28 May 13:05:13 13:08:41 23° 92° (E) 13:12:09 437.525
BEESAT 3 28 May 13:08:41 13:12:41 55° 41° (NE) 13:16:38 437.485
AO-85 28 May 13:16:42 13:20:38 59° 232° (SW) 13:24:43 145.980
Gurwin Techsat 1B 28 May 13:18:24 13:23:14 37° 62° (ENE) 13:28:06 435.225
Oscar 19 28 May 13:23:46 13:28:52 59° 68° (ENE) 13:34:00 437.125/150
50 SAT 28 May 13:26:20 13:28:37 17° 92° (E) 13:30:53 437.505
VELOX 1 28 May 13:26:22 13:30:24 34° 96° (E) 13:34:25 145.980
UKube-1 28 May 13:44:02 13:46:36 15° 89° (E) 13:49:09 .
NANOSAT C BR1 28 May 13:45:28 13:47:51 15° 272° (W) 13:50:15 145.865
POLYITAN 1 28 May 13:52:56 13:54:34 12° 274° (W) 13:56:12 437.675
YUBILEINY 28 May 13:53:05 14:01:30 51° 272° (W) 14:09:53 435.215
DX 1 28 May 13:55:18 13:58:58 26° 94° (E) 14:02:37 434.975-435.025
DUCHIFAT 1 28 May 13:55:27 13:57:28 13° 273° (W) 13:59:29 145.980
O/OREOS (USA 219) 28 May 13:55:57 14:00:29 69° 244° (WSW) 14:04:56 437.305
NO-84 28 May 14:00:52 14:04:59 88° 198° (SSW) 14:08:45 435.350 FM
LO-87 28 May 14:01:22 14:03:46 17° 299° (WNW) 14:06:09 145.935 - 145.965
BUGSAT 1 28 May 14:03:14 14:06:36 26° 266° (W) 14:10:02 437.445
AO-7 28 May 14:09:22 14:16:47 38° 49° (NE) 14:24:14 .
ESTCUBE 1 28 May 14:16:33 14:20:29 30° 298° (WNW) 14:24:24 437.505/2401.250
BEESAT 2 28 May 14:30:49 14:34:54 74° 230° (SW) 14:38:56 435.950
ITAMSAT 1 28 May 14:30:54 14:35:15 28° 58° (ENE) 14:39:37 435.822/435.867
SPROUT 28 May 14:40:42 14:44:49 48° 292° (WNW) 14:48:57 437.525
BEESAT 3 28 May 14:46:40 14:50:02 26° 241° (WSW) 14:53:21 437.485
RS-15 28 May 14:52:10 14:55:21 11° 273° (W) 14:58:32 29.354- 29.394
Gurwin Techsat 1B 28 May 14:58:06 15:03:09 43° 262° (W) 15:08:14 435.225
50 SAT 28 May 14:58:27 15:01:44 44° 290° (WNW) 15:04:58 437.505
VELOX 1 28 May 15:02:53 15:06:53 34° 296° (WNW) 15:10:50 145.980
Oscar 19 28 May 15:04:15 15:08:34 26° 268° (W) 15:12:54 437.125/150
ITUPSAT 1 28 May 15:10:29 15:12:46 13° 85° (E) 15:15:01 437.325
UKube-1 28 May 15:18:51 15:23:10 76° 289° (WNW) 15:27:28 .
DX 1 28 May 15:31:12 15:35:21 44° 293° (WNW) 15:39:27 434.975-435.025
O/OREOS (USA 219) 28 May 15:38:10 15:39:00 10° 264° (W) 15:39:48 437.305
NO-84 28 May 15:38:52 15:42:12 27° 221° (SW) 15:45:18 435.350 FM
BEESAT 28 May 15:41:24 15:45:18 24° 92° (E) 15:49:11 436.000
YUBILEINY 28 May 15:52:47 15:56:03 13° 296° (WNW) 15:59:21 435.215
AO-7 28 May 16:00:48 16:09:05 74° 252° (WSW) 16:17:27 .
ITAMSAT 1 28 May 16:09:20 16:14:25 59° 258° (WSW) 16:19:34 435.822/435.867
BEESAT 2 28 May 16:10:20 16:11:57 12° 249° (WSW) 16:13:34 435.950
MOZHAYETS 4 28 May 16:41:03 16:45:35 48° 99° (E) 16:50:05
CUTE-I 28 May 16:43:40 16:46:42 16° 49° (NE) 16:49:44 437.470
ITUPSAT 1 28 May 16:46:32 16:51:23 80° 104° (ESE) 16:56:13 437.325
UKube-1 28 May 16:56:24 16:58:30 13° 307° (NW) 17:00:36 .
XW-2F 28 May 16:57:31 16:58:43 11° 54° (NE) 16:59:55 145.980 - 146.000
XW-2C 28 May 16:59:53 17:01:29 12° 56° (NE) 17:03:06 145.795 - 145.815
KAITUO 1B 28 May 17:01:49 17:02:28 10° 54° (NE) 17:03:08 145.475/437.950
HO-68 28 May 17:16:11 17:20:48 19° 39° (NE) 17:25:24 435.675
KKS-1 28 May 17:18:30 17:21:49 20° 91° (E) 17:25:07 437.445
BEESAT 28 May 17:18:42 17:23:25 56° 292° (WNW) 17:28:06 436.000
DOVE 4 28 May 17:24:41 17:28:43 36° 66° (ENE) 17:32:37 437.250
CUBESAT XI-V 28 May 17:33:10 17:37:26 34° 95° (E) 17:41:37 437.345
LilacSat-2 28 May 17:38:35 17:41:52 27° 65° (ENE) 17:45:12 437.200
STARS 28 May 17:43:17 17:46:06 17° 89° (E) 17:48:56 437.465
AO-7 28 May 17:57:43 18:03:23 20° 275° (W) 18:09:05 .
XW-2D 28 May 18:09:32 18:13:16 51° 70° (ENE) 18:17:02 145.860 - 145.880
XW-2B 28 May 18:17:29 18:21:16 60° 72° (ENE) 18:25:05 145.730 - 145.750
MOZHAYETS 4 28 May 18:18:35 18:22:32 28° 299° (WNW) 18:26:29
NUDT-PHONESAT 28 May 18:20:18 18:23:56 51° 70° (ENE) 18:27:36 437.300
CUTE-I 28 May 18:20:36 18:25:51 67° 69° (ENE) 18:31:08 437.470
ITUPSAT 1 28 May 18:25:15 18:28:42 20° 305° (NW) 18:32:08 437.325
CUTE 1.7 + AOD 2 28 May 18:25:41 18:28:34 18° 58° (ENE) 18:31:27 437.475
XW-2F 28 May 18:28:21 18:32:10 76° 74° (ENE) 18:36:02 145.980 - 146.000
XW-2C 28 May 18:31:13 18:35:03 85° 74° (ENE) 18:38:56 145.795 - 145.815
KAITUO 1B 28 May 18:31:59 18:35:45 70° 74° (ENE) 18:39:34 145.475/437.950
PCSat 28 May 18:39:58 18:43:22 17° 106° (ESE) 18:46:48 145.827
KKS-1 28 May 18:54:22 18:58:45 60° 290° (WNW) 19:03:07 437.445
BEESAT 28 May 18:58:26 19:00:14 12° 312° (NW) 19:02:04 436.000
HO-68 28 May 19:00:11 19:07:09 57° 62° (ENE) 19:14:11 435.675
DOVE 4 28 May 19:02:30 19:06:29 31° 264° (W) 19:10:21 437.250
ZACube-1 28 May 19:07:21 19:08:17 11° 50° (NE) 19:09:14 437.345
SEEDS 28 May 19:09:26 19:13:04 28° 64° (ENE) 19:16:43 437.485
CUBESAT XI-V 28 May 19:10:32 19:14:52 38° 295° (WNW) 19:19:08 437.345
LilacSat-2 28 May 19:12:29 19:16:03 35° 263° (W) 19:19:40 437.200
STARS 28 May 19:18:34 19:22:58 73° 289° (WNW) 19:27:21 437.465
CUBEBUG 2 28 May 19:26:54 19:30:37 31° 64° (ENE) 19:34:27 437.445
UWE-3 28 May 19:32:33 19:35:59 24° 61° (ENE) 19:39:31 435.000/436.395/437.385
XW-2D 28 May 19:45:03 19:47:45 18° 270° (W) 19:50:29 145.860 - 145.880
XW-2A 28 May 19:46:41 19:50:02 76° 74° (ENE) 19:53:27 145.665 - 145.685
STRAND 1 28 May 19:52:36 19:56:28 21° 89° (E) 20:00:19 437.568
XW-2B 28 May 19:53:27 19:55:51 16° 271° (W) 19:58:16 145.730 - 145.750
NUDT-PHONESAT 28 May 19:55:34 19:58:08 18° 270° (W) 20:00:44 437.300
Oscar 11 28 May 19:55:43 19:58:54 20° 59° (ENE) 20:02:05 .
CUTE 1.7 + AOD 2 28 May 19:59:38 20:03:55 74° 256° (WSW) 20:08:15 437.475
AAUSAT CUBESAT 2 28 May 20:01:28 20:05:26 43° 68° (ENE) 20:09:25 437.432
CUTE-I 28 May 20:02:12 20:06:23 23° 269° (W) 20:10:37 437.470
XW-2F 28 May 20:05:03 20:06:50 13° 273° (W) 20:08:36 145.980 - 146.000
KAITUO 1B 28 May 20:08:15 20:10:14 14° 272° (W) 20:12:14 145.475/437.950
XW-2C 28 May 20:08:28 20:09:50 12° 274° (W) 20:11:12 145.795 - 145.815
PCSat 28 May 20:20:33 20:25:58 81° 127° (SE) 20:31:27 145.827
AO-73 28 May 20:24:14 20:28:13 39° 66° (ENE) 20:32:19 145.935
Tancredo 1 28 May 20:27:01 20:28:55 15° 144° (SE) 20:30:50 437.200
KKS-1 28 May 20:33:00 20:34:27 11° 310° (NW) 20:35:54 437.445
ZACube-1 28 May 20:39:27 20:43:38 57° 70° (ENE) 20:47:58 437.345
SEEDS 28 May 20:44:36 20:48:38 41° 263° (W) 20:52:41 437.485
HO-68 28 May 20:48:29 20:55:10 40° 264° (W) 21:01:54 435.675
STARS 28 May 20:56:30 20:58:35 13° 308° (NW) 21:00:39 437.465
EO-88 28 May 21:01:44 21:04:09 17° 60° (ENE) 21:06:34 145.990 - 145.960
CUBEBUG 2 28 May 21:03:20 21:07:13 36° 264° (W) 21:11:12 437.445
UWE-3 28 May 21:08:05 21:12:11 49° 261° (W) 21:16:28 435.000/436.395/437.385
ISS 28 May 21:21:12 21:23:59 26° 151° (SSE) 21:26:48 437.550
XW-2A 28 May 21:22:46 21:23:18 10° 273° (W) 21:23:50 145.665 - 145.685
Oscar 11 28 May 21:30:18 21:34:38 65° 258° (WSW) 21:39:00 .
STRAND 1 28 May 21:31:02 21:36:11 72° 289° (WNW) 21:41:19 437.568
DELFI C3 28 May 21:33:17 21:37:05 45° 69° (ENE) 21:40:54 145.870
AAUSAT CUBESAT 2 28 May 21:37:35 21:41:04 25° 267° (W) 21:44:34 437.432
CUTE 1.7 + AOD 2 28 May 21:39:47 21:40:33 10° 277° (W) 21:41:18 437.475
SO-50 28 May 22:00:18 22:03:10 17° 113° (ESE) 22:06:03 436.795
AO-73 28 May 22:00:48 22:04:33 29° 266° (W) 22:08:25 145.935
Tancredo 1 28 May 22:01:11 22:04:10 47° 163° (SSE) 22:07:09 437.200
PCSat 28 May 22:05:06 22:09:57 32° 329° (NNW) 22:14:49 145.827
ESTCUBE 1 28 May 22:10:24 22:12:53 15° 53° (NE) 22:15:23 437.505/2401.250
M-CUBED/EXP-1 PRIME 28 May 22:15:39 22:18:52 44° 107° (ESE) 22:21:59 437.505
ZACube-1 28 May 22:17:07 22:20:18 20° 270° (W) 22:23:34 437.345
FO-29 28 May 22:22:23 22:27:38 25° 90° (E) 22:33:20 435.910
PRISM 28 May 22:27:02 22:29:56 18° 91° (E) 22:32:47 437.425
TIGRISAT 28 May 22:32:56 22:36:18 20° 90° (E) 22:39:42 435.000
EO-88 28 May 22:33:50 22:37:27 58° 259° (W) 22:41:07 145.990 - 145.960
VELOX 1 28 May 22:56:02 22:57:44 12° 51° (NE) 22:59:27 145.980
ISS 28 May 22:56:53 23:00:09 63° 170° (S) 23:03:25 437.550
UNISAT 6 28 May 23:04:51 23:09:10 38° 97° (E) 23:13:32 437.425
LO-87 28 May 23:08:40 23:12:08 53° 71° (ENE) 23:15:37 145.935 - 145.965
DELFI C3 28 May 23:08:55 23:12:04 22° 268° (W) 23:15:14 145.870
STRAND 1 28 May 23:11:31 23:14:34 16° 310° (NW) 23:17:36 437.568
Tancredo 1 28 May 23:36:43 23:39:47 70° 183° (S) 23:42:51 437.200
SO-50 28 May 23:38:27 23:43:01 86° 137° (SE) 23:47:36 436.795
ESTCUBE 1 28 May 23:44:27 23:49:00 79° 71° (ENE) 23:53:34 437.505/2401.250
M-CUBED/EXP-1 PRIME 28 May 23:50:44 23:53:06 18° 306° (NW) 23:55:25 437.505
PCSat 28 May 23:51:13 23:55:01 19° 355° (N) 23:58:49 145.827
POLYITAN 1 28 May 23:54:55 23:55:55 11° 85° (E) 23:56:54 437.675
PRISM 29 May 00:01:33 00:05:34 56° 290° (WNW) 00:09:32 437.425
QB50P2 29 May 00:02:42 00:04:56 14° 87° (E) 00:07:10 145.880/145.840
SPROUT 29 May 00:03:58 00:07:54 38° 66° (ENE) 00:11:51 437.525
50 SAT 29 May 00:04:21 00:06:48 18° 62° (ENE) 00:09:15 437.505
FO-29 29 May 00:06:55 00:13:15 80° 288° (WNW) 00:20:24 435.910
TIGRISAT 29 May 00:08:50 00:13:25 66° 288° (WNW) 00:18:02 435.000
AIST 2D 29 May 00:16:26 00:19:34 28° 95° (E) 00:22:41 435.315
VELOX 1 29 May 00:29:01 00:33:23 65° 71° (ENE) 00:37:46 145.980
ISS 29 May 00:33:16 00:36:33 63° 190° (S) 00:39:49 437.550
EO-79 29 May 00:37:54 00:41:31 26° 94° (E) 00:45:08 145.935-145.965
UNISAT 6 29 May 00:41:42 00:45:51 34° 296° (WNW) 00:50:01 437.425
UKube-1 29 May 00:43:37 00:47:20 29° 62° (ENE) 00:51:02 .
LO-87 29 May 00:43:45 00:45:54 15° 270° (W) 00:48:04 145.935 - 145.965
DX 1 29 May 00:56:10 01:00:20 49° 68° (ENE) 01:04:33 434.975-435.025
RS-15 29 May 00:56:57 01:05:10 22° 96° (E) 01:13:26 29.354- 29.394
YUBILEINY 29 May 01:04:56 01:12:59 44° 86° (E) 01:21:07 435.215
Tancredo 1 29 May 01:12:28 01:15:19 35° 202° (SSW) 01:18:10 437.200
BEESAT 29 May 01:19:32 01:21:05 12° 47° (NE) 01:22:39 436.000
SO-50 29 May 01:20:02 01:24:00 29° 335° (NNW) 01:27:58 436.795
NANOSAT C BR1 29 May 01:21:05 01:25:19 60° 102° (ESE) 01:29:31 145.865
ESTCUBE 1 29 May 01:23:33 01:26:23 16° 272° (W) 01:29:12 437.505/2401.250
POLYITAN 1 29 May 01:28:09 01:32:27 76° 103° (ESE) 01:36:45 437.675
DUCHIFAT 1 29 May 01:30:19 01:34:33 67° 102° (ESE) 01:38:47 145.980
Oscar 19 29 May 01:30:52 01:33:08 13° 84° (E) 01:35:23 437.125/150
PCSat 29 May 01:35:59 01:40:19 23° 20° (NNE) 01:44:38 145.827
50 SAT 29 May 01:36:05 01:39:25 44° 260° (W) 01:42:45 437.505
QB50P2 29 May 01:37:01 01:41:19 83° 285° (WNW) 01:45:36 145.880/145.840
BUGSAT 1 29 May 01:37:58 01:41:36 29° 95° (E) 01:45:16 437.445
SPROUT 29 May 01:40:10 01:43:53 29° 265° (W) 01:47:38 437.525
TIGRISAT 29 May 01:47:15 01:49:18 13° 308° (NW) 01:51:22 435.000
AIST 2D 29 May 01:49:38 01:52:46 29° 294° (WNW) 01:55:53 435.315
FO-29 29 May 01:53:02 01:57:37 22° 308° (NW) 02:02:36 435.910
VELOX 1 29 May 02:07:11 02:10:16 19° 270° (W) 02:13:23 145.980
ISS 29 May 02:09:55 02:12:43 25° 209° (SSW) 02:15:30 437.550
EO-79 29 May 02:13:25 02:17:27 42° 293° (WNW) 02:21:28 145.935-145.965
MOZHAYETS 4 29 May 02:13:38 02:16:33 17° 55° (NE) 02:19:30
UKube-1 29 May 02:19:09 02:23:14 41° 261° (W) 02:27:21 .
ITUPSAT 1 29 May 02:22:09 02:26:20 31° 61° (ENE) 02:30:32 437.325
DX 1 29 May 02:33:15 02:36:46 24° 267° (W) 02:40:19 434.975-435.025
BEESAT 29 May 02:53:15 02:57:53 54° 68° (ENE) 03:02:33 436.000
NANOSAT C BR1 29 May 02:57:30 03:00:40 21° 301° (WNW) 03:03:50 145.865
YUBILEINY 29 May 03:01:04 03:09:38 57° 290° (WNW) 03:18:19 435.215
SO-50 29 May 03:02:33 03:05:47 19° 359° (N) 03:09:02 436.795
RS-15 29 May 03:03:14 03:15:13 67° 122° (ESE) 03:27:23 29.354- 29.394
POLYITAN 1 29 May 03:04:56 03:07:45 17° 303° (WNW) 03:10:35 437.675
DUCHIFAT 1 29 May 03:06:49 03:09:49 19° 302° (WNW) 03:12:49 145.980
Gurwin Techsat 1B 29 May 03:07:37 03:12:47 48° 99° (E) 03:17:54 435.225
CUBESAT XI-V 29 May 03:07:54 03:10:01 13° 51° (NE) 03:12:07 437.345
Oscar 19 29 May 03:08:13 03:13:25 73° 105° (ESE) 03:18:33 437.125/150
BUGSAT 1 29 May 03:13:14 03:17:03 37° 294° (WNW) 03:20:53 437.445
QB50P2 29 May 03:14:12 03:16:28 14° 306° (NW) 03:18:44 145.880/145.840
PCSat 29 May 03:19:25 03:24:49 59° 44° (NE) 03:30:11 145.827
